MORELOS 3

Last updated on Thu Oct 30 2025 00:02:50 GMT+0000 (Coordinated Universal Time)

1 40946U 15056A 25302.53263897 -.00000032 00000+0 00000+0 0 9999 2 40946 3.0377 8.2543 0002938 179.4728 289.0504 1.00271509 36975
UTC large
Height (km)
Speed (km/s)
/
Latitude / Longitude
Inclination (degrees)
Orbital Period (minutes)
Azimuth
Elevation
Range (km)
Doppler Factor

Next 0 passes for location: London (51.5072 / 0.1276)

Sorry there are no passes over London.